sat.trackr.live / text

‹ back to catalog

ONEWEB-0398

NORAD 50478 · 2021-132K

PAYLOAD ACTIVE UNKNOWN

§ Identity

Operator
Country
UK
Launch date
2021-12-27
Launch site
TYMSC
Launch vehicle
Mass (kg)
RCS (m²)

Purposes: comms

External: N2YO · Heavens-Above · Gunter

§ Orbital elements

Epoch: 2026-09-19T14:09:56.851776Z

Period
109.81 min
Inclination
87.8972°
Eccentricity
0.0001510
Mean motion
13.11415327 rev/d
Perigee alt
1,216.5 km
Apogee alt
1,218.8 km
Semi-major
7,595.8 km
B*
8.2026e-4
RAAN
2.2968°
Arg perigee
106.2239°
Mean anomaly
253.9056°
Rev number
22,798

§ Raw data

ONEWEB-03981 50478U 21132K   26262.59024134  .00000303  00000+0  82026-3 0  99952 50478  87.8972   2.2968 0001510 106.2239 253.9056 13.11415327227980

JSON: /api/v1/satellites/50478 · /tle

For live sub-satellite position, see the globe view (requires WebGL).

§ Visibility from observer

Set your observer location to see the next 7 days of passes ≥ 10°. The values pass through the URL so the page stays shareable.

No JS? Fill the form by hand. The geolocation button needs JavaScript.